Zurück zum Katalog

ALCOMSAT 1

AktivKommunikationGEO
NORAD 43039·PAYLOAD·🇩🇿 Algeria

Gestartet Dec 10, 2017 von Xichang Satellite Launch Center

Loading…

TLE

AktuellSource: Space-Track

Epoche: Sep 14, 2026, 10:15 UTC

1 43039U 17078A   26257.42770451 -.00000194  00000-0  00000-0 0  9999
2 43039   0.0363  52.3083 0002085 107.1800 323.1002  1.00270952 32198

Verfolge ALCOMSAT 1 in Echtzeit mit AllMySat

Download on the App Store